Regional Weather Roundup
Issued by NWS

Home | Current Version | Previous Version | Graphics & Text | Print | Product List | Glossary On
Versions: 1 2 3 4 5 6 7 8 9 10 11 12 13 14 15 16 17 18 19 20 21 22 23 24 25 26 27 28 29 30 31 32 33 34 35 36 37 38 39 40 41 42 43 44 45 46 47 48 49 50
000
ASUS43 KLOT 010121
RWRIL

ILLINOIS REGIONAL WEATHER ROUNDUP
NATIONAL WEATHER SERVICE CHICAGO/ROMEOVILLE IL
800 PM CDT FRI JUL 31 2015

NOTE: "FAIR" INDICATES FEW OR NO CLOUDS BELOW 12,000 FEET WITH NO
SIGNIFICANT WEATHER AND/OR OBSTRUCTIONS TO VISIBILITY.

* THESE STATIONS ARE NOT UNDER NWS QUALITY CONTROL. THEY ALSO MAY NOT
  REPORT WEATHER SUCH AS PRECIPITATION OR FOG.

ILZ001-002-007-009-015-016-024-010200-
NORTHWEST ILLINOIS

CITY           SKY/WX    TMP DP  RH WIND       PRES   REMARKS
MOLINE         CLEAR     80  55  42 NW10      30.01R HX  80
STERLING*      CLEAR     73  57  56 W10       29.95S
SAVANNA*       CLEAR     78  53  42 W10       29.99R
$$

ILZ003-004-008-010-011-017-018-010200-
NORTH CENTRAL ILLINOIS

CITY           SKY/WX    TMP DP  RH WIND       PRES   REMARKS
ROCKFORD       PTCLDY    77  49  37 NW12      29.98R
FREEPORT*      CLEAR     72  53  50 NW5       30.00R
ROCHELLE*      CLEAR     75  53  45 W8        29.99R
DE KALB*       CLEAR     73  52  47 NW8       29.99R
PERU*          CLEAR     75  58  54 W7        29.99S
$$

ILZ005-006-012>014-019>023-010200-
NORTHEAST ILLINOIS

CITY           SKY/WX    TMP DP  RH WIND       PRES   REMARKS
CHICAGO-OHARE  CLEAR     80  48  32 NW10      29.94R
CHICAGO-MIDWAY PTCLDY    82  48  30 NW13      29.94R HX  81
AURORA         CLEAR     72  55  55 W7        29.97R
LANSING*       CLEAR     79  47  31 NW9       29.94S
JOLIET*        CLEAR     80  53  38 CALM      29.96R HX  80
WAUKEGAN       CLEAR     74  51  44 CALM      29.94R
DUPAGE AIRPORT CLEAR     77  51  40 W9        29.95S
KANKAKEE*      CLEAR     79  56  44 NW7       29.97R HX  80
WHEELING       CLEAR     79  47  32 NW10      29.96R
MORRIS*        CLEAR     73  58  60 NW6       29.96R
ROMEOVILLE*    CLEAR     77  47  34 NW9       29.96R
NORTHERLY ISL    N/A     81  47  30 W15         N/A  HX  80
$$

LMZ740>746-010200-
SOUTHERN LAKE MICHIGAN

STATION/POSITION SKY/WX   TEMP    WIND        PRES    VSBY  WAVE
                          AIR SEA DIR/SP/G                  HT/PER
                          (F)     (DEG/KT/KT) (MB)    (MI)  (FT/S)
HARRISON CRIB              79     310/ 18/ 21   N/A
BURNHAM HARBOR             80     300/ 12/ 15   N/A
CALUMET HARBOR             83     290/  7/ 12   N/A
BURNS HARBOR               77     360/  9/ 12 1013.9S
MICHIGAN CITY              75     330/ 11/ 13   N/A
MICHIGAN CITY 6N           74 74   10/  6/  8   N/A           3/ 4
ST. JOSEPH                 74 74  320/  4/  4   N/A           1/ 3
$$

ILZ025>027-034>036-040-047-049-050-058-095>099-010200-
WEST-CENTRAL ILLINOIS

CITY           SKY/WX    TMP DP  RH WIND       PRES   REMARKS
QUINCY         MOCLDY    80  68  66 W5        30.02S HX  83
GALESBURG*     CLOUDY    77  65  64 W6        30.02S
MACOMB*        CLEAR     76  65  68 NW6       30.04S
JACKSONVILLE*  CLEAR     81  72  76 CALM      30.01F HX  85
PITTSFIELD*    PTCLDY    81  68  65 CALM      30.03F HX  83
$$

ILZ028>032-037-038-041>044-048-051>054-059>061-010200-
CENTRAL ILLINOIS

CITY           SKY/WX    TMP DP  RH WIND       PRES   REMARKS
PONTIAC        CLEAR     76  66  71 W5        29.99S
BLOOMINGTON    CLEAR     81  59  47 NW13      30.01S HX  81
DECATUR        CLEAR     83  56  39 NW9       30.00S HX  82
PEORIA         CLEAR     82  64  54 NW5       30.00S HX  83
LACON*         CLEAR     78  59  51 NW7       29.99R HX  80
LINCOLN*       CLEAR     82  61  48 CALM      29.99S HX  83
SPRINGFIELD    CLEAR     80  72  76 W6        30.01R HX  84
TAYLORVILLE    PTCLDY    77  70  78 W5        30.00S
$$

ILZ033-039-045-046-055>057-062-063-010200-
EAST-CENTRAL ILLINOIS

CITY           SKY/WX    TMP DP  RH WIND       PRES   REMARKS
CHAMPAIGN      CLEAR     76  66  71 W5        30.00S
DANVILLE*      CLEAR     74  64  69 W6        29.95S
RANTOUL*       CLEAR     79  64  60 NW7       29.99S HX  80
MATTOON        CLEAR     78  64  61 CALM      29.99S HX  80
PARIS*         CLEAR     76  62  62 W5        29.99S
$$

ILZ079-100>102-010200-
SOUTHWEST ILLINOIS

CITY           SKY/WX    TMP DP  RH WIND       PRES   REMARKS
ALTON          CLEAR     81  66  61 NW5       30.01  HX  83
BELLEVILLE     CLEAR     84  70  63 N3        29.99F HX  88
CAHOKIA*       CLEAR     86  58  38 W5        30.00S HX  85
SPARTA*        CLEAR     85  68  56 CALM      30.02S HX  87
$$

ILZ064>066-069>071-074>076-080>082-084>086-088>090-092>094-010200-
SOUTH-CENTRAL ILLINOIS

CITY           SKY/WX    TMP DP  RH WIND       PRES   REMARKS
CARBONDALE     CLEAR     82  75  79 CALM      30.01S HX  89
CAIRO*         CLEAR     80  72  76 CALM      30.01S HX  84
EFFINGHAM*     PTCLDY    80  65  60 W5        30.01S HX  82
MARION         CLEAR     81  73  78 CALM      30.02S HX  85
MT. VERNON     CLEAR     79  64  61 CALM      30.01S HX  81
CENTRALIA*     CLEAR     82  64  55 NW5       30.01S HX  83
SALEM*         CLEAR     79  71  77 W3        30.01S HX  82
METROPOLIS*    CLEAR     80  74  81 CALM      30.01S HX  85
$$

ILZ067-068-072-073-078-083-087-091-010200-
SOUTHEAST ILLINOIS

CITY           SKY/WX    TMP DP  RH WIND       PRES   REMARKS
LAWRENCEVILLE  CLEAR     83  68  60 W3        29.99S HX  86
FLORA*         CLEAR     80  66  63 CALM      30.00S HX  82
FAIRFIELD*     CLEAR     79  72  78 CALM      29.99S HX  82
HARRISBURG*    CLEAR     81  69  66 CALM      30.02R HX  84
ROBINSON*      CLEAR     76  70  80 CALM      30.00S
CARMI*         CLEAR     79  66  65 CALM      30.00R HX  81
$$

ABBREVIATIONS USED IN REMARKS
   TC - TEMPERATURE IN CELSIUS
  WCI - WIND CHILL INDEX
   HX - HEAT INDEX
  VSB - VISIBILITY
$$




USA.gov is the U.S. government's official web portal to all federal, state and local government web resources and services.